OpenBCM V1.13 (Linux)

Packet Radio Mailbox

DB0FHN

[JN59NK Nuernberg]

 Login: GUEST





  
I6KZR  > KEPLER   05.02.03 22:10l 1460 Lines 39192 Bytes #999 (0) @ WW
BID : 22296_IK6WID
Read: DB0FHN GUEST
Subj: Old Istantrak Keplerians #036
Path: DB0FHN<DB0RGB<OK0PPL<RZ6HXA<SP7MGD<IK6PYS<I6ZLO<IK6WID
Sent: 030205/1959Z @:IK6WID.#AP.IMAR.ITA.EU #:22296 [MONTE URANO]  FBB7.00i
From: I6KZR@IK6WID.#AP.IMAR.ITA.EU
To  : KEPLER@WW


Satellite: OSCAR 7
Catalog number: 07530
Epoch time:      103036.20437182
Element set:     147 
Inclination:      101.7637 deg
RA of node:        84.1153 deg
Eccentricity:    0.0012233
Arg of perigee:   103.3442 deg
Mean anomaly:     256.8994 deg
Mean motion:   12.53564198 rev/day
Decay rate:   -2.9000E-007 rev/day^2
Epoch rev:           29151
Checksum:              280

Satellite: GOES 2
Catalog number: 10061
Epoch time:      103028.56527598
Element set:     70 
Inclination:       14.1264 deg
RA of node:        13.5931 deg
Eccentricity:    0.0013180
Arg of perigee:   196.1337 deg
Mean anomaly:     163.8523 deg
Mean motion:    0.99391768 rev/day
Decay rate:    9.9999E-009 rev/day^2
Epoch rev:            3862
Checksum:              321

Satellite: GOES 3
Catalog number: 10953
Epoch time:      103034.97590790
Element set:     913 
Inclination:       13.4031 deg
RA of node:        17.3427 deg
Eccentricity:    0.0005282
Arg of perigee:   341.2248 deg
Mean anomaly:      18.7961 deg
Mean motion:    1.00278771 rev/day
Decay rate:   -1.0100E-006 rev/day^2
Epoch rev:            4335
Checksum:              267

Satellite: GOES 6
Catalog number: 14050
Epoch time:      103035.09071563
Element set:     417 
Inclination:       10.3815 deg
RA of node:        35.5807 deg
Eccentricity:    0.0003190
Arg of perigee:   349.1855 deg
Mean anomaly:      10.8902 deg
Mean motion:    1.00298332 rev/day
Decay rate:    4.1000E-007 rev/day^2
Epoch rev:           13049
Checksum:              366

Satellite: OSCAR 10
Catalog number: 14129
Epoch time:      103034.35061340
Element set:     914 
Inclination:       25.9028 deg
RA of node:       166.8331 deg
Eccentricity:    0.6027722
Arg of perigee:   324.8138 deg
Mean anomaly:       7.1176 deg
Mean motion:    2.05866763 rev/day
Decay rate:   -1.4800E-006 rev/day^2
Epoch rev:           11975
Checksum:              285

Satellite: OSCAR 11 (UoSA
Catalog number: 14781
Epoch time:      103036.20647358
Element set:     62 
Inclination:       98.1148 deg
RA of node:        10.0291 deg
Eccentricity:    0.0008156
Arg of perigee:   254.2201 deg
Mean anomaly:     105.8110 deg
Mean motion:   14.77951413 rev/day
Decay rate:    1.3560E-005 rev/day^2
Epoch rev:            1426
Checksum:              260

Satellite: NOAA 10
Catalog number: 16969
Epoch time:      103035.94628177
Element set:     656 
Inclination:       98.7277 deg
RA of node:        30.0849 deg
Eccentricity:    0.0013084
Arg of perigee:   123.7784 deg
Mean anomaly:     236.4644 deg
Mean motion:   14.27058153 rev/day
Decay rate:    1.6200E-006 rev/day^2
Epoch rev:           85196
Checksum:              333

Satellite: GOES 7
Catalog number: 17561
Epoch time:      103013.52827387
Element set:     810 
Inclination:        7.5470 deg
RA of node:        55.7264 deg
Eccentricity:    0.0004064
Arg of perigee:   288.6625 deg
Mean anomaly:     149.4031 deg
Mean motion:    1.00317770 rev/day
Decay rate:    1.1600E-006 rev/day^2
Epoch rev:            4138
Checksum:              275

Satellite: COSMOS 1861
Catalog number: 18129
Epoch time:      103035.88026773
Element set:     202 
Inclination:       82.9252 deg
RA of node:       156.6789 deg
Eccentricity:    0.0010268
Arg of perigee:   268.2163 deg
Mean anomaly:      91.7811 deg
Mean motion:   13.72698997 rev/day
Decay rate:    2.9000E-007 rev/day^2
Epoch rev:           78263
Checksum:              348

Satellite: EUTELSAT 1-F4 
Catalog number: 18351
Epoch time:      103034.75810437
Element set:     35 
Inclination:        7.1663 deg
RA of node:        58.7051 deg
Eccentricity:    0.0008809
Arg of perigee:   189.3390 deg
Mean anomaly:     170.8013 deg
Mean motion:    0.98689317 rev/day
Decay rate:   -1.4500E-006 rev/day^2
Epoch rev:            4253
Checksum:              300

Satellite: NOAA 11
Catalog number: 19531
Epoch time:      103035.93078549
Element set:     491 
Inclination:       98.9028 deg
RA of node:       117.3581 deg
Eccentricity:    0.0010999
Arg of perigee:   239.5809 deg
Mean anomaly:     120.4276 deg
Mean motion:   14.14530431 rev/day
Decay rate:    1.5800E-006 rev/day^2
Epoch rev:           74087
Checksum:              319

Satellite: ASTRA 1A
Catalog number: 19688
Epoch time:      103036.14901043
Element set:     568 
Inclination:        1.3501 deg
RA of node:        95.0505 deg
Eccentricity:    0.0004165
Arg of perigee:   217.0854 deg
Mean anomaly:     241.5432 deg
Mean motion:    1.00271926 rev/day
Decay rate:    3.1999E-007 rev/day^2
Epoch rev:            3206
Checksum:              270

Satellite: OSCAR 14 (UOSA
Catalog number: 20437
Epoch time:      103035.65653891
Element set:     157 
Inclination:       98.2744 deg
RA of node:        79.9332 deg
Eccentricity:    0.0009829
Arg of perigee:   243.4234 deg
Mean anomaly:     116.5941 deg
Mean motion:   14.31232782 rev/day
Decay rate:    1.2599E-006 rev/day^2
Epoch rev:           68050
Checksum:              435

Satellite: OSCAR 15 (UOSA
Catalog number: 20438
Epoch time:      103035.94586436
Element set:     774 
Inclination:       98.2484 deg
RA of node:        69.3893 deg
Eccentricity:    0.0009028
Arg of perigee:   254.5697 deg
Mean anomaly:     105.4488 deg
Mean motion:   14.30194025 rev/day
Decay rate:    9.7999E-007 rev/day^2
Epoch rev:           68021
Checksum:              473

Satellite: OSCAR 16 (PACS
Catalog number: 20439
Epoch time:      103035.74362252
Element set:     847 
Inclination:       98.3200 deg
RA of node:        91.6198 deg
Eccentricity:    0.0010146
Arg of perigee:   248.9900 deg
Mean anomaly:     111.0192 deg
Mean motion:   14.31465874 rev/day
Decay rate:    1.6300E-006 rev/day^2
Epoch rev:           68055
Checksum:              292

Satellite: OSCAR 17 (DOVE
Catalog number: 20440
Epoch time:      103035.73522377
Element set:     744 
Inclination:       98.3387 deg
RA of node:        95.4722 deg
Eccentricity:    0.0010219
Arg of perigee:   248.6008 deg
Mean anomaly:     111.4076 deg
Mean motion:   14.31743071 rev/day
Decay rate:    1.5299E-006 rev/day^2
Epoch rev:           68062
Checksum:              301

Satellite: OSCAR 18 (WEBE
Catalog number: 20441
Epoch time:      103035.93489623
Element set:     6 
Inclination:       98.3382 deg
RA of node:        94.8850 deg
Eccentricity:    0.0010763
Arg of perigee:   248.4084 deg
Mean anomaly:     111.5954 deg
Mean motion:   14.31547488 rev/day
Decay rate:    1.3100E-006 rev/day^2
Epoch rev:           68063
Checksum:              308

Satellite: OSCAR 19 (LUSA
Catalog number: 20442
Epoch time:      103035.70521164
Element set:     957 
Inclination:       98.3480 deg
RA of node:        97.6608 deg
Eccentricity:    0.0011074
Arg of perigee:   249.7470 deg
Mean anomaly:     110.2522 deg
Mean motion:   14.31710479 rev/day
Decay rate:    1.5499E-006 rev/day^2
Epoch rev:           68065
Checksum:              311

Satellite: JAS 1B (FUJI 2
Catalog number: 20480
Epoch time:      103035.90334722
Element set:     460 
Inclination:       99.0443 deg
RA of node:         1.2180 deg
Eccentricity:    0.0540880
Arg of perigee:    34.8034 deg
Mean anomaly:     328.7225 deg
Mean motion:   12.83329030 rev/day
Decay rate:   -2.9000E-007 rev/day^2
Epoch rev:           60876
Checksum:              269

Satellite: HST
Catalog number: 20580
Epoch time:      103036.64085252
Element set:     318 
Inclination:       28.4666 deg
RA of node:       122.0570 deg
Eccentricity:    0.0004394
Arg of perigee:   133.2864 deg
Mean anomaly:      15.3708 deg
Mean motion:   14.97759329 rev/day
Decay rate:    2.3619E-005 rev/day^2
Epoch rev:           50069
Checksum:              303

Satellite: EUTELSAT 2-F1
Catalog number: 20777
Epoch time:      103035.70942469
Element set:     25 
Inclination:        3.4674 deg
RA of node:        84.6836 deg
Eccentricity:    0.0000968
Arg of perigee:   309.4627 deg
Mean anomaly:      71.6910 deg
Mean motion:    1.00271017 rev/day
Decay rate:   -1.0300E-006 rev/day^2
Epoch rev:            2596
Checksum:              401

Satellite: FENGYUN 1B
Catalog number: 20788
Epoch time:      103036.18960332
Element set:     874 
Inclination:       99.0257 deg
RA of node:        18.5028 deg
Eccentricity:    0.0015000
Arg of perigee:   268.3081 deg
Mean anomaly:      91.6367 deg
Mean motion:   14.02135661 rev/day
Decay rate:   -1.7099E-006 rev/day^2
Epoch rev:           63566
Checksum:              307

Satellite: EUTELSAT 2-F2
Catalog number: 21056
Epoch time:      103029.03428242
Element set:     614 
Inclination:        2.6809 deg
RA of node:        88.1556 deg
Eccentricity:    0.0002992
Arg of perigee:   259.4059 deg
Mean anomaly:     201.0206 deg
Mean motion:    1.00269955 rev/day
Decay rate:    1.1399E-006 rev/day^2
Epoch rev:            3167
Checksum:              286

Satellite: INFORMATOR 1
Catalog number: 21087
Epoch time:      103035.87743491
Element set:     596 
Inclination:       82.9439 deg
RA of node:       327.5445 deg
Eccentricity:    0.0034028
Arg of perigee:   290.7216 deg
Mean anomaly:      69.0291 deg
Mean motion:   13.74924789 rev/day
Decay rate:    6.0999E-007 rev/day^2
Epoch rev:           60300
Checksum:              340

Satellite: COSMOS 2123
Catalog number: 21089
Epoch time:      103035.92712987
Element set:     512 
Inclination:       82.9214 deg
RA of node:       191.4934 deg
Eccentricity:    0.0028776
Arg of perigee:   327.2700 deg
Mean anomaly:      32.6669 deg
Mean motion:   13.74402674 rev/day
Decay rate:    6.0999E-007 rev/day^2
Epoch rev:           60191
Checksum:              335

